Year,Month,Day,Hour,Minute,Value (Times are PST for barometer in hPa)
2021,10,24,00,00,996.04
2021,10,24,00,01,996.07
2021,10,24,00,02,996.01
2021,10,24,00,03,996.01
2021,10,24,00,04,995.94
2021,10,24,00,05,995.97
2021,10,24,00,06,995.94
2021,10,24,00,07,995.94
2021,10,24,00,08,995.90
2021,10,24,00,09,995.87
2021,10,24,00,10,995.87
2021,10,24,00,11,995.80
2021,10,24,00,12,995.84
2021,10,24,00,13,995.84
2021,10,24,00,14,995.73
2021,10,24,00,15,995.77
2021,10,24,00,16,995.73
2021,10,24,00,17,995.67
2021,10,24,00,18,995.63
2021,10,24,00,19,995.56
2021,10,24,00,20,995.56
2021,10,24,00,21,995.50
2021,10,24,00,22,995.50
2021,10,24,00,23,995.43
2021,10,24,00,24,995.43
2021,10,24,00,25,995.46
2021,10,24,00,26,995.40
2021,10,24,00,27,995.40
2021,10,24,00,28,995.36
2021,10,24,00,29,995.36
2021,10,24,00,30,995.33
2021,10,24,00,31,995.33
2021,10,24,00,32,995.36
2021,10,24,00,33,995.36
2021,10,24,00,34,995.29
2021,10,24,00,35,995.19
2021,10,24,00,36,995.23
2021,10,24,00,37,995.26
2021,10,24,00,38,995.19
2021,10,24,00,39,995.23
2021,10,24,00,40,995.16
2021,10,24,00,41,995.19
2021,10,24,00,42,995.12
2021,10,24,00,43,995.09
2021,10,24,00,44,995.02
2021,10,24,00,45,994.99
2021,10,24,00,46,994.99
2021,10,24,00,47,994.92
2021,10,24,00,48,994.89
2021,10,24,00,49,994.85
2021,10,24,00,50,994.85
2021,10,24,00,51,994.85
2021,10,24,00,52,994.85
2021,10,24,00,53,994.85
2021,10,24,00,54,994.79
2021,10,24,00,55,994.82
2021,10,24,00,56,994.82
2021,10,24,00,57,994.82
2021,10,24,00,58,994.82
2021,10,24,00,59,994.75
2021,10,24,01,00,994.79
2021,10,24,01,01,994.75
2021,10,24,01,02,994.75
2021,10,24,01,03,994.72
2021,10,24,01,04,994.68
2021,10,24,01,05,994.68
2021,10,24,01,06,994.68
2021,10,24,01,07,994.68
2021,10,24,01,08,994.68
2021,10,24,01,09,994.65
2021,10,24,01,10,994.58
2021,10,24,01,11,994.58
2021,10,24,01,12,994.58
2021,10,24,01,13,994.58
2021,10,24,01,14,994.55
2021,10,24,01,15,994.52
2021,10,24,01,16,994.55
2021,10,24,01,17,994.52
2021,10,24,01,18,994.45
2021,10,24,01,19,994.45
2021,10,24,01,20,994.45
2021,10,24,01,21,994.38
2021,10,24,01,22,994.35
2021,10,24,01,23,994.38
2021,10,24,01,24,994.41
2021,10,24,01,25,994.38
2021,10,24,01,26,994.38
2021,10,24,01,27,994.31
2021,10,24,01,28,994.38
2021,10,24,01,29,994.45
2021,10,24,01,30,994.48
2021,10,24,01,31,994.38
2021,10,24,01,32,994.35
2021,10,24,01,33,994.31
2021,10,24,01,34,994.38
2021,10,24,01,35,994.31
2021,10,24,01,36,994.35
2021,10,24,01,37,994.28
2021,10,24,01,38,994.24
2021,10,24,01,39,994.24
2021,10,24,01,40,994.28
2021,10,24,01,41,994.28
2021,10,24,01,42,994.24
2021,10,24,01,43,994.24
2021,10,24,01,44,994.24
2021,10,24,01,45,994.24
2021,10,24,01,46,994.24
2021,10,24,01,47,994.21
2021,10,24,01,48,994.21
2021,10,24,01,49,994.18
2021,10,24,01,50,994.11
2021,10,24,01,51,994.07
2021,10,24,01,52,994.04
2021,10,24,01,53,994.04
2021,10,24,01,54,994.01
2021,10,24,01,55,993.91
2021,10,24,01,56,993.84
2021,10,24,01,57,993.77
2021,10,24,01,58,993.77
2021,10,24,01,59,993.74
2021,10,24,02,00,993.77
2021,10,24,02,01,993.77
2021,10,24,02,02,993.74
2021,10,24,02,03,993.70
2021,10,24,02,04,993.67
2021,10,24,02,05,993.67
2021,10,24,02,06,993.70
2021,10,24,02,07,993.67
2021,10,24,02,08,993.60
2021,10,24,02,09,993.60
2021,10,24,02,10,993.57
2021,10,24,02,11,993.63
2021,10,24,02,12,993.60
2021,10,24,02,13,993.60
2021,10,24,02,14,993.57
2021,10,24,02,15,993.60
2021,10,24,02,16,993.57
2021,10,24,02,17,993.57
2021,10,24,02,18,993.60
2021,10,24,02,19,993.60
2021,10,24,02,20,993.53
2021,10,24,02,21,993.53
2021,10,24,02,22,993.50
2021,10,24,02,23,993.47
2021,10,24,02,24,993.43
2021,10,24,02,25,993.43
2021,10,24,02,26,993.40
2021,10,24,02,27,993.36
2021,10,24,02,28,993.30
2021,10,24,02,29,993.26
2021,10,24,02,30,993.26
2021,10,24,02,31,993.26
2021,10,24,02,32,993.23
2021,10,24,02,33,993.23
2021,10,24,02,34,993.19
2021,10,24,02,35,993.16
2021,10,24,02,36,993.13
2021,10,24,02,37,993.06
2021,10,24,02,38,993.06
2021,10,24,02,39,993.03
2021,10,24,02,40,992.99
2021,10,24,02,41,992.99
2021,10,24,02,42,992.96
2021,10,24,02,43,992.96
2021,10,24,02,44,992.96
2021,10,24,02,45,992.89
2021,10,24,02,46,992.86
2021,10,24,02,47,992.82
2021,10,24,02,48,992.82
2021,10,24,02,49,992.82
2021,10,24,02,50,992.75
2021,10,24,02,51,992.79
2021,10,24,02,52,992.79
2021,10,24,02,53,992.75
2021,10,24,02,54,992.79
2021,10,24,02,55,992.72
2021,10,24,02,56,992.62
2021,10,24,02,57,992.65
2021,10,24,02,58,992.62
2021,10,24,02,59,992.58
2021,10,24,03,00,992.62
2021,10,24,03,01,992.55
2021,10,24,03,02,992.52
2021,10,24,03,03,992.42
2021,10,24,03,04,992.42
2021,10,24,03,05,992.35
2021,10,24,03,06,992.31
2021,10,24,03,07,992.28
2021,10,24,03,08,992.18
2021,10,24,03,09,992.25
2021,10,24,03,10,992.25
2021,10,24,03,11,992.21
2021,10,24,03,12,992.21
2021,10,24,03,13,992.14
2021,10,24,03,14,992.11
2021,10,24,03,15,992.04
2021,10,24,03,16,992.01
2021,10,24,03,17,991.91
2021,10,24,03,18,991.91
2021,10,24,03,19,991.81
2021,10,24,03,20,991.81
2021,10,24,03,21,991.87
2021,10,24,03,22,991.94
2021,10,24,03,23,991.98
2021,10,24,03,24,991.87
2021,10,24,03,25,991.84
2021,10,24,03,26,991.81
2021,10,24,03,27,991.67
2021,10,24,03,28,991.64
2021,10,24,03,29,991.60
2021,10,24,03,30,991.57
2021,10,24,03,31,991.53
2021,10,24,03,32,991.47
2021,10,24,03,33,991.47
2021,10,24,03,34,991.37
2021,10,24,03,35,991.33
2021,10,24,03,36,991.26
2021,10,24,03,37,991.23
2021,10,24,03,38,991.23
2021,10,24,03,39,991.16
2021,10,24,03,40,991.20
2021,10,24,03,41,991.16
2021,10,24,03,42,991.16
2021,10,24,03,43,991.09
2021,10,24,03,44,991.09
2021,10,24,03,45,991.06
2021,10,24,03,46,990.99
2021,10,24,03,47,990.96
2021,10,24,03,48,990.96
2021,10,24,03,49,990.93
2021,10,24,03,50,990.89
2021,10,24,03,51,990.93
2021,10,24,03,52,990.86
2021,10,24,03,53,990.89
2021,10,24,03,54,990.82
2021,10,24,03,55,990.82
2021,10,24,03,56,990.82
2021,10,24,03,57,990.82
2021,10,24,03,58,990.76
2021,10,24,03,59,990.72
2021,10,24,04,00,990.72
2021,10,24,04,01,990.65
2021,10,24,04,02,990.62
2021,10,24,04,03,990.59
2021,10,24,04,04,990.55
2021,10,24,04,05,990.62
2021,10,24,04,06,990.55
2021,10,24,04,07,990.49
2021,10,24,04,08,990.42
2021,10,24,04,09,990.45
2021,10,24,04,10,990.45
2021,10,24,04,11,990.49
2021,10,24,04,12,990.45
2021,10,24,04,13,990.45
2021,10,24,04,14,990.42
2021,10,24,04,15,990.38
2021,10,24,04,16,990.35
2021,10,24,04,17,990.32
2021,10,24,04,18,990.28
2021,10,24,04,19,990.25
2021,10,24,04,20,990.18
2021,10,24,04,21,990.04
2021,10,24,04,22,990.01
2021,10,24,04,23,990.01
2021,10,24,04,24,990.04
2021,10,24,04,25,989.98
2021,10,24,04,26,989.94
2021,10,24,04,27,989.88
2021,10,24,04,28,989.81
2021,10,24,04,29,989.81
2021,10,24,04,30,989.81
2021,10,24,04,31,989.77
2021,10,24,04,32,989.71
2021,10,24,04,33,989.64
2021,10,24,04,34,989.64
2021,10,24,04,35,989.57
2021,10,24,04,36,989.54
2021,10,24,04,37,989.50
2021,10,24,04,38,989.47
2021,10,24,04,39,989.47
2021,10,24,04,40,989.40
2021,10,24,04,41,989.23
2021,10,24,04,42,989.20
2021,10,24,04,43,989.16
2021,10,24,04,44,989.13
2021,10,24,04,45,989.06
2021,10,24,04,46,989.03
2021,10,24,04,47,988.96
2021,10,24,04,48,988.96
2021,10,24,04,49,989.00
2021,10,24,04,50,989.00
2021,10,24,04,51,989.00
2021,10,24,04,52,989.03
2021,10,24,04,53,989.06
2021,10,24,04,54,989.16
2021,10,24,04,55,989.16
2021,10,24,04,56,989.20
2021,10,24,04,57,989.16
2021,10,24,04,58,989.16
2021,10,24,04,59,989.10
2021,10,24,05,00,989.03
2021,10,24,05,01,989.00
2021,10,24,05,02,988.96
2021,10,24,05,03,988.86
2021,10,24,05,04,988.86
2021,10,24,05,05,988.83
2021,10,24,05,06,988.76
2021,10,24,05,07,988.69
2021,10,24,05,08,988.72
2021,10,24,05,09,988.83
2021,10,24,05,10,988.76
2021,10,24,05,11,988.72
2021,10,24,05,12,988.76
2021,10,24,05,13,988.72
2021,10,24,05,14,988.69
2021,10,24,05,15,988.69
2021,10,24,05,16,988.66
2021,10,24,05,17,988.62
2021,10,24,05,18,988.52
2021,10,24,05,19,988.45
2021,10,24,05,20,988.42
2021,10,24,05,21,988.28
2021,10,24,05,22,988.28
2021,10,24,05,23,988.22
2021,10,24,05,24,988.11
2021,10,24,05,25,988.01
2021,10,24,05,26,987.88
2021,10,24,05,27,987.81
2021,10,24,05,28,987.74
2021,10,24,05,29,987.71
2021,10,24,05,30,987.67
2021,10,24,05,31,987.71
2021,10,24,05,32,987.64
2021,10,24,05,33,987.57
2021,10,24,05,34,987.57
2021,10,24,05,35,987.51
2021,10,24,05,36,987.47
2021,10,24,05,37,987.44
2021,10,24,05,38,987.37
2021,10,24,05,39,987.34
2021,10,24,05,40,987.34
2021,10,24,05,41,987.34
2021,10,24,05,42,987.37
2021,10,24,05,43,987.34
2021,10,24,05,44,987.34
2021,10,24,05,45,987.34
2021,10,24,05,46,987.34
2021,10,24,05,47,987.27
2021,10,24,05,48,987.23
2021,10,24,05,49,987.27
2021,10,24,05,50,987.20
2021,10,24,05,51,987.13
2021,10,24,05,52,987.13
2021,10,24,05,53,987.17
2021,10,24,05,54,987.20
2021,10,24,05,55,987.13
2021,10,24,05,56,987.10
2021,10,24,05,57,987.03
2021,10,24,05,58,986.93
2021,10,24,05,59,986.83
2021,10,24,06,00,986.79
2021,10,24,06,01,986.66
2021,10,24,06,02,986.59
2021,10,24,06,03,986.45
2021,10,24,06,04,986.29
2021,10,24,06,05,986.28
2021,10,24,06,06,986.18
2021,10,24,06,07,986.15
2021,10,24,06,08,986.12
2021,10,24,06,09,986.05
2021,10,24,06,10,986.05
2021,10,24,06,11,986.08
2021,10,24,06,12,986.02
2021,10,24,06,13,986.02
2021,10,24,06,14,986.02
2021,10,24,06,15,985.91
2021,10,24,06,16,985.85
2021,10,24,06,17,985.81
2021,10,24,06,18,985.74
2021,10,24,06,19,985.64
2021,10,24,06,20,985.64
2021,10,24,06,21,985.57
2021,10,24,06,22,985.51
2021,10,24,06,23,985.47
2021,10,24,06,24,985.41
2021,10,24,06,25,985.34
2021,10,24,06,26,985.26
2021,10,24,06,27,985.13
2021,10,24,06,28,985.00
2021,10,24,06,29,985.00
2021,10,24,06,30,984.97
2021,10,24,06,31,984.97
2021,10,24,06,32,984.93
2021,10,24,06,33,984.93
2021,10,24,06,34,984.93
2021,10,24,06,35,984.97
2021,10,24,06,36,984.97
2021,10,24,06,37,984.93
2021,10,24,06,38,984.97
2021,10,24,06,39,984.90
2021,10,24,06,40,984.86
2021,10,24,06,41,984.76
2021,10,24,06,42,984.76
2021,10,24,06,43,984.73
2021,10,24,06,44,984.76
2021,10,24,06,45,984.80
2021,10,24,06,46,984.83
2021,10,24,06,47,984.80
2021,10,24,06,48,984.73
2021,10,24,06,49,984.69
2021,10,24,06,50,984.63
2021,10,24,06,51,984.63
2021,10,24,06,52,984.63
2021,10,24,06,53,984.56
2021,10,24,06,54,984.59
2021,10,24,06,55,984.63
2021,10,24,06,56,984.63
2021,10,24,06,57,984.63
2021,10,24,06,58,984.58
2021,10,24,06,59,984.46
2021,10,24,07,00,984.39
2021,10,24,07,01,984.35
2021,10,24,07,02,984.24
2021,10,24,07,03,984.15
2021,10,24,07,04,984.08
2021,10,24,07,05,984.02
2021,10,24,07,06,983.95
2021,10,24,07,07,984.02
2021,10,24,07,08,984.02
2021,10,24,07,09,983.98
2021,10,24,07,10,984.02
2021,10,24,07,11,984.02
2021,10,24,07,12,983.98
2021,10,24,07,13,983.98
2021,10,24,07,14,984.02
2021,10,24,07,15,983.98
2021,10,24,07,16,983.92
2021,10,24,07,17,984.02
2021,10,24,07,18,984.02
2021,10,24,07,19,984.02
2021,10,24,07,20,984.08
2021,10,24,07,21,984.08
2021,10,24,07,22,984.12
2021,10,24,07,23,984.15
2021,10,24,07,24,984.15
2021,10,24,07,25,984.12
2021,10,24,07,26,984.12
2021,10,24,07,27,984.08
2021,10,24,07,28,983.95
2021,10,24,07,29,983.85
2021,10,24,07,30,983.75
2021,10,24,07,31,983.64
2021,10,24,07,32,983.64
2021,10,24,07,33,983.64
2021,10,24,07,34,983.58
2021,10,24,07,35,983.48
2021,10,24,07,36,983.41
2021,10,24,07,37,983.37
2021,10,24,07,38,983.34
2021,10,24,07,39,983.27
2021,10,24,07,40,983.27
2021,10,24,07,41,983.24
2021,10,24,07,42,983.14
2021,10,24,07,43,983.04
2021,10,24,07,44,983.00
2021,10,24,07,45,983.04
2021,10,24,07,46,983.07
2021,10,24,07,47,983.07
2021,10,24,07,48,983.00
2021,10,24,07,49,983.04
2021,10,24,07,50,983.04
2021,10,24,07,51,983.07
2021,10,24,07,52,983.04
2021,10,24,07,53,983.04
2021,10,24,07,54,983.00
2021,10,24,07,55,983.04
2021,10,24,07,56,983.00
2021,10,24,07,57,982.97
2021,10,24,07,58,982.90
2021,10,24,07,59,982.83
2021,10,24,08,00,982.80
2021,10,24,08,01,982.70
2021,10,24,08,02,982.66
2021,10,24,08,03,982.66
2021,10,24,08,04,982.59
2021,10,24,08,05,982.56
2021,10,24,08,06,982.53
2021,10,24,08,07,982.49
2021,10,24,08,08,982.49
2021,10,24,08,09,982.46
2021,10,24,08,10,982.49
2021,10,24,08,11,982.49
2021,10,24,08,12,982.49
2021,10,24,08,13,982.49
2021,10,24,08,14,982.46
2021,10,24,08,15,982.39
2021,10,24,08,16,982.39
2021,10,24,08,17,982.39
2021,10,24,08,18,982.39
2021,10,24,08,19,982.36
2021,10,24,08,20,982.36
2021,10,24,08,21,982.29
2021,10,24,08,22,982.26
2021,10,24,08,23,982.22
2021,10,24,08,24,982.19
2021,10,24,08,25,982.19
2021,10,24,08,26,982.22
2021,10,24,08,27,982.22
2021,10,24,08,28,982.22
2021,10,24,08,29,982.12
2021,10,24,08,30,982.15
2021,10,24,08,31,982.12
2021,10,24,08,32,982.15
2021,10,24,08,33,982.15
2021,10,24,08,34,982.15
2021,10,24,08,35,982.09
2021,10,24,08,36,982.09
2021,10,24,08,37,982.09
2021,10,24,08,38,982.19
2021,10,24,08,39,982.15
2021,10,24,08,40,982.15
2021,10,24,08,41,982.12
2021,10,24,08,42,982.09
2021,10,24,08,43,982.05
2021,10,24,08,44,982.09
2021,10,24,08,45,982.15
2021,10,24,08,46,982.15
2021,10,24,08,47,982.26
2021,10,24,08,48,982.22
2021,10,24,08,49,982.09
2021,10,24,08,50,982.02
2021,10,24,08,51,981.99
2021,10,24,08,52,981.95
2021,10,24,08,53,981.99
2021,10,24,08,54,981.85
2021,10,24,08,55,981.88
2021,10,24,08,56,981.85
2021,10,24,08,57,981.85
2021,10,24,08,58,981.85
2021,10,24,08,59,981.85
2021,10,24,09,00,981.85
2021,10,24,09,01,981.82
2021,10,24,09,02,981.85
2021,10,24,09,03,981.71
2021,10,24,09,04,981.68
2021,10,24,09,05,981.78
2021,10,24,09,06,981.75
2021,10,24,09,07,981.78
2021,10,24,09,08,981.82
2021,10,24,09,09,981.85
2021,10,24,09,10,981.78
2021,10,24,09,11,981.75
2021,10,24,09,12,981.68
2021,10,24,09,13,981.75
2021,10,24,09,14,981.85
2021,10,24,09,15,981.88
2021,10,24,09,16,981.92
2021,10,24,09,17,981.95
2021,10,24,09,18,981.95
2021,10,24,09,19,981.99
2021,10,24,09,20,981.92
2021,10,24,09,21,981.85
2021,10,24,09,22,981.82
2021,10,24,09,23,981.75
2021,10,24,09,24,981.71
2021,10,24,09,25,981.65
2021,10,24,09,26,981.68
2021,10,24,09,27,981.75
2021,10,24,09,28,981.78
2021,10,24,09,29,981.75
2021,10,24,09,30,981.82
2021,10,24,09,31,981.88
2021,10,24,09,32,981.88
2021,10,24,09,33,981.92
2021,10,24,09,34,981.95
2021,10,24,09,35,981.99
2021,10,24,09,36,981.95
2021,10,24,09,37,981.88
2021,10,24,09,38,981.88
2021,10,24,09,39,981.92
2021,10,24,09,40,981.92
2021,10,24,09,41,981.92
2021,10,24,09,42,981.99
2021,10,24,09,43,981.95
2021,10,24,09,44,981.95
2021,10,24,09,45,981.95
2021,10,24,09,46,981.92
2021,10,24,09,47,981.88
2021,10,24,09,48,981.92
2021,10,24,09,49,981.92
2021,10,24,09,50,981.92
2021,10,24,09,51,981.92
2021,10,24,09,52,981.85
2021,10,24,09,53,981.85
2021,10,24,09,54,981.78
2021,10,24,09,55,981.68
2021,10,24,09,56,981.56
2021,10,24,09,57,981.40
2021,10,24,09,58,981.27
2021,10,24,09,59,981.21
2021,10,24,10,00,981.14
2021,10,24,10,01,981.14
2021,10,24,10,02,981.04
2021,10,24,10,03,981.04
2021,10,24,10,04,980.94
2021,10,24,10,05,980.74
2021,10,24,10,06,980.56
2021,10,24,10,07,980.53
2021,10,24,10,08,980.56
2021,10,24,10,09,980.60
2021,10,24,10,10,980.63
2021,10,24,10,11,980.53
2021,10,24,10,12,980.46
2021,10,24,10,13,980.36
2021,10,24,10,14,980.33
2021,10,24,10,15,980.26
2021,10,24,10,16,980.12
2021,10,24,10,17,979.99
2021,10,24,10,18,979.92
2021,10,24,10,19,980.02
2021,10,24,10,20,980.02
2021,10,24,10,21,980.12
2021,10,24,10,22,980.28
2021,10,24,10,23,980.39
2021,10,24,10,24,980.60
2021,10,24,10,25,980.60
2021,10,24,10,26,980.56
2021,10,24,10,27,980.56
2021,10,24,10,28,980.56
2021,10,24,10,29,980.60
2021,10,24,10,30,980.56
2021,10,24,10,31,980.60
2021,10,24,10,32,980.39
2021,10,24,10,33,980.29
2021,10,24,10,34,980.19
2021,10,24,10,35,980.12
2021,10,24,10,36,980.19
2021,10,24,10,37,980.12
2021,10,24,10,38,980.16
2021,10,24,10,39,980.12
2021,10,24,10,40,979.99
2021,10,24,10,41,979.91
2021,10,24,10,42,979.78
2021,10,24,10,43,979.72
2021,10,24,10,44,979.75
2021,10,24,10,45,979.72
2021,10,24,10,46,979.72
2021,10,24,10,47,979.75
2021,10,24,10,48,979.82
2021,10,24,10,49,979.82
2021,10,24,10,50,979.82
2021,10,24,10,51,979.85
2021,10,24,10,52,979.68
2021,10,24,10,53,979.61
2021,10,24,10,54,979.65
2021,10,24,10,55,979.65
2021,10,24,10,56,979.72
2021,10,24,10,57,979.78
2021,10,24,10,58,979.82
2021,10,24,10,59,979.85
2021,10,24,11,00,979.85
2021,10,24,11,01,979.92
2021,10,24,11,02,979.92
2021,10,24,11,03,979.99
2021,10,24,11,04,980.02
2021,10,24,11,05,979.92
2021,10,24,11,06,979.95
2021,10,24,11,07,979.89
2021,10,24,11,08,979.82
2021,10,24,11,09,979.72
2021,10,24,11,10,979.75
2021,10,24,11,11,979.75
2021,10,24,11,12,979.61
2021,10,24,11,13,979.65
2021,10,24,11,14,979.68
2021,10,24,11,15,979.78
2021,10,24,11,16,979.89
2021,10,24,11,17,979.96
2021,10,24,11,18,980.12
2021,10,24,11,19,980.19
2021,10,24,11,20,980.22
2021,10,24,11,21,980.22
2021,10,24,11,22,980.26
2021,10,24,11,23,980.39
2021,10,24,11,24,980.39
2021,10,24,11,25,980.43
2021,10,24,11,26,980.39
2021,10,24,11,27,980.39
2021,10,24,11,28,980.43
2021,10,24,11,29,980.39
2021,10,24,11,30,980.29
2021,10,24,11,31,980.16
2021,10,24,11,32,980.12
2021,10,24,11,33,980.16
2021,10,24,11,34,980.12
2021,10,24,11,35,980.16
2021,10,24,11,36,980.26
2021,10,24,11,37,980.33
2021,10,24,11,38,980.26
2021,10,24,11,39,980.22
2021,10,24,11,40,980.29
2021,10,24,11,41,980.33
2021,10,24,11,42,980.43
2021,10,24,11,43,980.53
2021,10,24,11,44,980.56
2021,10,24,11,45,980.53
2021,10,24,11,46,980.43
2021,10,24,11,47,980.36
2021,10,24,11,48,980.22
2021,10,24,11,49,980.16
2021,10,24,11,50,980.12
2021,10,24,11,51,980.16
2021,10,24,11,52,980.12
2021,10,24,11,53,980.19
2021,10,24,11,54,980.16
2021,10,24,11,55,980.09
2021,10,24,11,56,980.02
2021,10,24,11,57,979.92
2021,10,24,11,58,979.89
2021,10,24,11,59,979.89
2021,10,24,12,00,979.85
2021,10,24,12,01,979.82
2021,10,24,12,02,979.82
2021,10,24,12,03,979.75
2021,10,24,12,04,979.89
2021,10,24,12,05,979.72
2021,10,24,12,06,979.68
2021,10,24,12,07,979.72
2021,10,24,12,08,979.75
2021,10,24,12,09,979.82
2021,10,24,12,10,979.75
2021,10,24,12,11,979.68
2021,10,24,12,12,979.58
2021,10,24,12,13,979.55
2021,10,24,12,14,979.41
2021,10,24,12,15,979.34
2021,10,24,12,16,979.31
2021,10,24,12,17,979.48
2021,10,24,12,18,979.55
2021,10,24,12,19,979.51
2021,10,24,12,20,979.38
2021,10,24,12,21,979.41
2021,10,24,12,22,979.41
2021,10,24,12,23,979.41
2021,10,24,12,24,979.34
2021,10,24,12,25,979.28
2021,10,24,12,26,979.28
2021,10,24,12,27,979.24
2021,10,24,12,28,979.34
2021,10,24,12,29,979.24
2021,10,24,12,30,979.21
2021,10,24,12,31,979.17
2021,10,24,12,32,979.21
2021,10,24,12,33,979.17
2021,10,24,12,34,979.21
2021,10,24,12,35,979.21
2021,10,24,12,36,979.21
2021,10,24,12,37,979.21
2021,10,24,12,38,979.21
2021,10,24,12,39,979.24
2021,10,24,12,40,979.11
2021,10,24,12,41,979.14
2021,10,24,12,42,979.17
2021,10,24,12,43,979.17
2021,10,24,12,44,979.17
2021,10,24,12,45,979.24
2021,10,24,12,46,979.21
2021,10,24,12,47,979.17
2021,10,24,12,48,979.24
2021,10,24,12,49,979.24
2021,10,24,12,50,979.31
2021,10,24,12,51,979.28
2021,10,24,12,52,979.28
2021,10,24,12,53,979.38
2021,10,24,12,54,979.48
2021,10,24,12,55,979.55
2021,10,24,12,56,979.61
2021,10,24,12,57,979.58
2021,10,24,12,58,979.55
2021,10,24,12,59,979.68
2021,10,24,13,00,979.65
2021,10,24,13,01,979.81
2021,10,24,13,02,979.85
2021,10,24,13,03,979.95
2021,10,24,13,04,980.02
2021,10,24,13,05,980.02
2021,10,24,13,06,980.09
2021,10,24,13,07,980.12
2021,10,24,13,08,980.22
2021,10,24,13,09,980.19
2021,10,24,13,10,979.92
2021,10,24,13,11,979.85
2021,10,24,13,12,979.89
2021,10,24,13,13,979.99
2021,10,24,13,14,980.06
2021,10,24,13,15,979.92
2021,10,24,13,16,979.95
2021,10,24,13,17,980.08
2021,10,24,13,18,980.12
2021,10,24,13,19,980.19
2021,10,24,13,20,980.09
2021,10,24,13,21,979.96
2021,10,24,13,22,979.85
2021,10,24,13,23,979.99
2021,10,24,13,24,979.85
2021,10,24,13,25,979.82
2021,10,24,13,26,979.82
2021,10,24,13,27,979.68
2021,10,24,13,28,979.58
2021,10,24,13,29,979.34
2021,10,24,13,30,979.28
2021,10,24,13,31,979.11
2021,10,24,13,32,979.11
2021,10,24,13,33,979.24
2021,10,24,13,34,979.31
2021,10,24,13,35,979.38
2021,10,24,13,36,979.55
2021,10,24,13,37,979.41
2021,10,24,13,38,979.48
2021,10,24,13,39,979.48
2021,10,24,13,40,979.48
2021,10,24,13,41,979.34
2021,10,24,13,42,979.28
2021,10,24,13,43,979.21
2021,10,24,13,44,979.11
2021,10,24,13,45,979.01
2021,10,24,13,46,978.80
2021,10,24,13,47,978.68
2021,10,24,13,48,978.63
2021,10,24,13,49,978.57
2021,10,24,13,50,978.57
2021,10,24,13,51,978.67
2021,10,24,13,52,979.05
2021,10,24,13,53,979.51
2021,10,24,13,54,979.93
2021,10,24,13,55,980.33
2021,10,24,13,56,980.39
2021,10,24,13,57,980.46
2021,10,24,13,58,980.50
2021,10,24,13,59,980.50
2021,10,24,14,00,980.60
2021,10,24,14,01,980.66
2021,10,24,14,02,980.66
2021,10,24,14,03,980.77
2021,10,24,14,04,980.77
2021,10,24,14,05,980.80
2021,10,24,14,06,980.70
2021,10,24,14,07,980.77
2021,10,24,14,08,980.70
2021,10,24,14,09,980.77
2021,10,24,14,10,980.63
2021,10,24,14,11,980.63
2021,10,24,14,12,980.63
2021,10,24,14,13,980.56
2021,10,24,14,14,980.46
2021,10,24,14,15,980.46
2021,10,24,14,16,980.43
2021,10,24,14,17,980.33
2021,10,24,14,18,980.19
2021,10,24,14,19,980.09
2021,10,24,14,20,980.02
2021,10,24,14,21,979.95
2021,10,24,14,22,979.99
2021,10,24,14,23,979.99
2021,10,24,14,24,980.06
2021,10,24,14,25,979.95
2021,10,24,14,26,979.99
2021,10,24,14,27,980.02
2021,10,24,14,28,980.12
2021,10,24,14,29,980.22
2021,10,24,14,30,980.26
2021,10,24,14,31,980.26
2021,10,24,14,32,980.29
2021,10,24,14,33,980.33
2021,10,24,14,34,980.43
2021,10,24,14,35,980.39
2021,10,24,14,36,980.46
2021,10,24,14,37,980.46
2021,10,24,14,38,980.43
2021,10,24,14,39,980.33
2021,10,24,14,40,980.26
2021,10,24,14,41,980.16
2021,10,24,14,42,980.12
2021,10,24,14,43,980.02
2021,10,24,14,44,980.02
2021,10,24,14,45,980.02
2021,10,24,14,46,980.09
2021,10,24,14,47,980.21
2021,10,24,14,48,980.26
2021,10,24,14,49,980.36
2021,10,24,14,50,980.33
2021,10,24,14,51,980.22
2021,10,24,14,52,980.16
2021,10,24,14,53,980.19
2021,10,24,14,54,980.19
2021,10,24,14,55,980.16
2021,10,24,14,56,980.12
2021,10,24,14,57,980.19
2021,10,24,14,58,980.26
2021,10,24,14,59,980.29
2021,10,24,15,00,980.33
2021,10,24,15,01,980.43
2021,10,24,15,02,980.39
2021,10,24,15,03,980.43
2021,10,24,15,04,980.46
2021,10,24,15,05,980.53
2021,10,24,15,06,980.53
2021,10,24,15,07,980.60
2021,10,24,15,08,980.63
2021,10,24,15,09,980.63
2021,10,24,15,10,980.66
2021,10,24,15,11,980.70
2021,10,24,15,12,980.70
2021,10,24,15,13,980.80
2021,10,24,15,14,980.64
2021,10,24,15,15,980.60
2021,10,24,15,16,980.53
2021,10,24,15,17,980.36
2021,10,24,15,18,980.33
2021,10,24,15,19,980.29
2021,10,24,15,20,980.29
2021,10,24,15,21,980.29
2021,10,24,15,22,980.36
2021,10,24,15,23,980.43
2021,10,24,15,24,980.53
2021,10,24,15,25,980.60
2021,10,24,15,26,980.70
2021,10,24,15,27,980.89
2021,10,24,15,28,981.03
2021,10,24,15,29,981.17
2021,10,24,15,30,981.17
2021,10,24,15,31,981.17
2021,10,24,15,32,981.21
2021,10,24,15,33,981.17
2021,10,24,15,34,981.10
2021,10,24,15,35,981.14
2021,10,24,15,36,981.21
2021,10,24,15,37,981.24
2021,10,24,15,38,981.21
2021,10,24,15,39,981.21
2021,10,24,15,40,981.17
2021,10,24,15,41,981.24
2021,10,24,15,42,981.17
2021,10,24,15,43,981.17
2021,10,24,15,44,981.21
2021,10,24,15,45,981.14
2021,10,24,15,46,981.17
2021,10,24,15,47,981.17
2021,10,24,15,48,981.21
2021,10,24,15,49,981.17
2021,10,24,15,50,981.27
2021,10,24,15,51,981.27
2021,10,24,15,52,981.24
2021,10,24,15,53,981.24
2021,10,24,15,54,981.24
2021,10,24,15,55,981.21
2021,10,24,15,56,981.21
2021,10,24,15,57,981.21
2021,10,24,15,58,981.17
2021,10,24,15,59,981.17
2021,10,24,16,00,981.17
2021,10,24,16,01,981.17
2021,10,24,16,02,981.21
2021,10,24,16,03,981.24
2021,10,24,16,04,981.27
2021,10,24,16,05,981.31
2021,10,24,16,06,981.31
2021,10,24,16,07,981.31
2021,10,24,16,08,981.31
2021,10,24,16,09,981.24
2021,10,24,16,10,981.24
2021,10,24,16,11,981.27
2021,10,24,16,12,981.31
2021,10,24,16,13,981.34
2021,10,24,16,14,981.34
2021,10,24,16,15,981.31
2021,10,24,16,16,981.31
2021,10,24,16,17,981.27
2021,10,24,16,18,981.27
2021,10,24,16,19,981.27
2021,10,24,16,20,981.31
2021,10,24,16,21,981.34
2021,10,24,16,22,981.34
2021,10,24,16,23,981.34
2021,10,24,16,24,981.31
2021,10,24,16,25,981.31
2021,10,24,16,26,981.27
2021,10,24,16,27,981.24
2021,10,24,16,28,981.21
2021,10,24,16,29,981.10
2021,10,24,16,30,981.21
2021,10,24,16,31,981.17
2021,10,24,16,32,981.21
2021,10,24,16,33,981.21
2021,10,24,16,34,981.21
2021,10,24,16,35,981.21
2021,10,24,16,36,981.24